TVF21D LFPO-EDDM

Flight info

Callsign TVF21D
Flight time 0h 58m
Altitude 23000
Route BUBLI DCT LUVAL/N0414F260 DCT LUPEN/N0419F270 T107 ROKIL ROKIL1B
Aircraft A320/M-SDE3FGHIRWY/LB1

Departure

Time 2026-05-07 15:45
Airport Paris-Orly Airport (LFPO)

Arrival

Time 2026-05-07 16:43
Airport Munich Airport (EDDM)
Time Latitude Longitude Altitude Speed Heading
2026-05-07 15:33 48.72455 2.36781 301 ft 0 kts 194°
2026-05-07 15:38 48.72458 2.36782 298 ft 3 kts 194°
2026-05-07 15:39 48.72483 2.36790 299 ft 4 kts 191°
2026-05-07 15:39 48.72509 2.36797 301 ft 3 kts 191°
2026-05-07 15:39 48.72522 2.36802 302 ft 2 kts 219°
2026-05-07 15:39 48.72530 2.36814 303 ft 2 kts 249°
2026-05-07 15:40 48.72533 2.36825 301 ft 0 kts 253°
2026-05-07 15:41 48.72529 2.36807 302 ft 7 kts 253°
2026-05-07 15:41 48.72507 2.36693 301 ft 15 kts 254°
2026-05-07 15:42 48.72480 2.36545 298 ft 14 kts 255°
2026-05-07 15:42 48.72456 2.36413 299 ft 12 kts 255°
2026-05-07 15:42 48.72431 2.36300 303 ft 10 kts 240°
2026-05-07 15:42 48.72374 2.36269 299 ft 10 kts 168°
2026-05-07 15:43 48.72299 2.36315 299 ft 14 kts 149°
2026-05-07 15:43 48.72232 2.36436 301 ft 17 kts 119°
2026-05-07 15:43 48.72137 2.36551 303 ft 19 kts 163°
2026-05-07 15:43 48.72081 2.36620 301 ft 9 kts 75°
2026-05-07 15:44 48.72083 2.36629 301 ft 8 kts 75°
2026-05-07 15:44 48.72173 2.37111 302 ft 84 kts 75°
2026-05-07 15:44 48.72386 2.38269 303 ft 141 kts 74°
2026-05-07 15:44 48.72676 2.39829 687 ft 156 kts 75°
2026-05-07 15:45 48.72966 2.41420 1408 ft 158 kts 74°
2026-05-07 15:45 48.73262 2.43053 2043 ft 169 kts 73°
2026-05-07 15:45 48.73593 2.44879 2450 ft 188 kts 73°
2026-05-07 15:45 48.73958 2.46908 2773 ft 214 kts 77°
2026-05-07 15:46 48.74093 2.51904 3709 ft 259 kts 87°
2026-05-07 15:46 48.74186 2.54657 4564 ft 264 kts 86°
2026-05-07 15:46 48.74325 2.57447 5467 ft 268 kts 90°
2026-05-07 15:47 48.74013 2.60245 6349 ft 271 kts 104°
2026-05-07 15:47 48.73557 2.63033 7195 ft 275 kts 105°
2026-05-07 15:47 48.73084 2.65864 8039 ft 279 kts 105°
2026-05-07 15:47 48.72604 2.68744 8796 ft 289 kts 105°
2026-05-07 15:48 48.72094 2.71812 9125 ft 312 kts 105°
2026-05-07 15:48 48.71546 2.75121 9416 ft 336 kts 105°
2026-05-07 15:48 48.70966 2.78651 9882 ft 350 kts 104°
2026-05-07 15:48 48.70375 2.82266 10517 ft 358 kts 104°
2026-05-07 15:49 48.69757 2.86039 10700 ft 380 kts 104°
2026-05-07 15:49 48.69435 2.90096 10985 ft 395 kts 93°
2026-05-07 15:49 48.69306 2.94280 11548 ft 401 kts 93°
2026-05-07 15:49 48.69168 2.98526 12157 ft 406 kts 93°
2026-05-07 15:50 48.69026 3.02809 12753 ft 410 kts 93°
2026-05-07 15:50 48.68881 3.07085 13328 ft 414 kts 93°
2026-05-07 15:50 48.68726 3.11515 13901 ft 418 kts 93°
2026-05-07 15:50 48.68573 3.15935 14413 ft 422 kts 93°
2026-05-07 15:51 48.68420 3.20381 14926 ft 425 kts 93°
2026-05-07 15:51 48.68263 3.24863 15436 ft 428 kts 93°
2026-05-07 15:51 48.68105 3.29323 15945 ft 432 kts 94°
2026-05-07 15:51 48.67936 3.33944 16440 ft 435 kts 94°
2026-05-07 15:52 48.67767 3.38464 16917 ft 438 kts 94°
2026-05-07 15:52 48.67592 3.43089 17398 ft 441 kts 94°
2026-05-07 15:52 48.67415 3.47741 17876 ft 444 kts 94°
2026-05-07 15:52 48.67235 3.52427 18348 ft 447 kts 94°
2026-05-07 15:53 48.67053 3.57139 18744 ft 450 kts 94°
2026-05-07 15:53 48.66871 3.61882 19151 ft 453 kts 94°
2026-05-07 15:53 48.66690 3.66654 19560 ft 455 kts 94°
2026-05-07 15:53 48.66507 3.71448 19946 ft 458 kts 94°
2026-05-07 15:54 48.66319 3.76265 20333 ft 460 kts 94°
2026-05-07 15:54 48.66125 3.81115 20708 ft 462 kts 94°
2026-05-07 15:54 48.65925 3.85987 21081 ft 464 kts 94°
2026-05-07 15:54 48.65725 3.90808 21434 ft 466 kts 94°
2026-05-07 15:55 48.65519 3.95717 21799 ft 469 kts 94°
2026-05-07 15:55 48.65310 4.00642 22147 ft 471 kts 94°
2026-05-07 15:55 48.65100 4.05600 22488 ft 473 kts 94°
2026-05-07 15:55 48.64891 4.10570 22813 ft 475 kts 94°
2026-05-07 15:56 48.64679 4.15563 23135 ft 477 kts 94°
2026-05-07 15:56 48.64462 4.20587 23445 ft 479 kts 94°
2026-05-07 15:56 48.64238 4.25629 23740 ft 482 kts 94°
2026-05-07 15:56 48.64008 4.30693 24003 ft 483 kts 94°
2026-05-07 15:57 48.63778 4.35770 24328 ft 483 kts 94°
2026-05-07 15:57 48.63547 4.40829 24721 ft 482 kts 94°
2026-05-07 15:57 48.63315 4.45880 25115 ft 481 kts 94°
2026-05-07 15:57 48.63082 4.50908 25503 ft 480 kts 94°
2026-05-07 15:58 48.62849 4.55935 25898 ft 479 kts 94°
2026-05-07 15:58 48.62612 4.60951 26300 ft 478 kts 95°
2026-05-07 15:58 48.62373 4.65956 26695 ft 477 kts 95°
2026-05-07 15:58 48.62131 4.70958 27096 ft 476 kts 95°
2026-05-07 15:59 48.61892 4.75946 27506 ft 475 kts 95°
2026-05-07 15:59 48.61652 4.80931 27914 ft 475 kts 95°
2026-05-07 15:59 48.61407 4.85897 28329 ft 474 kts 95°
2026-05-07 15:59 48.61156 4.90862 28742 ft 473 kts 95°
2026-05-07 16:00 48.60904 4.95813 29158 ft 472 kts 95°
2026-05-07 16:00 48.60655 5.00749 29575 ft 471 kts 95°
2026-05-07 16:00 48.60404 5.05688 29983 ft 471 kts 95°
2026-05-07 16:00 48.60153 5.10623 30347 ft 470 kts 95°
2026-05-07 16:01 48.59901 5.15549 30675 ft 470 kts 95°
2026-05-07 16:01 48.59645 5.20469 30995 ft 470 kts 95°
2026-05-07 16:01 48.59385 5.25387 31306 ft 470 kts 95°
2026-05-07 16:01 48.59124 5.30254 31609 ft 470 kts 95°
2026-05-07 16:02 48.58856 5.35241 31925 ft 471 kts 95°
2026-05-07 16:02 48.58593 5.40104 32236 ft 471 kts 95°
2026-05-07 16:02 48.58323 5.45027 32545 ft 471 kts 95°
2026-05-07 16:02 48.58051 5.49961 32859 ft 471 kts 95°
2026-05-07 16:03 48.57774 5.54897 33029 ft 473 kts 95°
2026-05-07 16:03 48.57300 5.63263 33053 ft 480 kts 95°
2026-05-07 16:04 48.56071 5.84741 33060 ft 482 kts 95°
2026-05-07 16:05 48.55479 5.94817 33057 ft 482 kts 95°
2026-05-07 16:05 48.54874 6.04887 33060 ft 482 kts 95°
2026-05-07 16:06 48.54267 6.14879 33053 ft 481 kts 95°
2026-05-07 16:06 48.53651 6.24935 33050 ft 481 kts 95°
2026-05-07 16:07 48.53027 6.34989 33050 ft 481 kts 95°
2026-05-07 16:07 48.52400 6.45028 33044 ft 480 kts 95°
2026-05-07 16:08 48.51762 6.55060 33043 ft 480 kts 95°
2026-05-07 16:08 48.51110 6.65070 33040 ft 480 kts 95°
2026-05-07 16:09 48.50445 6.75086 33037 ft 480 kts 95°
2026-05-07 16:09 48.49775 6.85090 33034 ft 479 kts 95°
2026-05-07 16:10 48.49107 6.95087 33035 ft 479 kts 96°
2026-05-07 16:10 48.48425 7.05075 33033 ft 479 kts 96°
2026-05-07 16:11 48.47731 7.15059 33036 ft 479 kts 96°
2026-05-07 16:11 48.47023 7.25031 33036 ft 479 kts 96°
2026-05-07 16:12 48.46315 7.35003 33039 ft 478 kts 96°
2026-05-07 16:12 48.45601 7.44968 33042 ft 478 kts 96°
2026-05-07 16:13 48.44878 7.54933 33050 ft 478 kts 96°
2026-05-07 16:13 48.44140 7.64898 33045 ft 478 kts 97°
2026-05-07 16:14 48.43543 7.74864 33047 ft 478 kts 89°
2026-05-07 16:14 48.43762 7.84880 33046 ft 478 kts 88°
2026-05-07 16:15 48.43981 7.94894 33049 ft 479 kts 88°
2026-05-07 16:15 48.44177 8.04917 33045 ft 479 kts 89°
2026-05-07 16:16 48.44364 8.14948 33043 ft 479 kts 89°
2026-05-07 16:16 48.44546 8.24992 33035 ft 480 kts 89°
2026-05-07 16:17 48.44720 8.35046 33031 ft 479 kts 89°
2026-05-07 16:17 48.44887 8.45078 33024 ft 479 kts 89°
2026-05-07 16:18 48.45043 8.55117 33019 ft 480 kts 89°
2026-05-07 16:18 48.45186 8.65188 33017 ft 480 kts 89°
2026-05-07 16:19 48.45321 8.75091 33016 ft 481 kts 90°
2026-05-07 16:19 48.45450 8.85008 33020 ft 481 kts 90°
2026-05-07 16:20 48.45572 8.95077 33022 ft 480 kts 90°
2026-05-07 16:20 48.45686 9.05138 33022 ft 480 kts 90°
2026-05-07 16:21 48.45793 9.15202 33027 ft 480 kts 90°
2026-05-07 16:21 48.45887 9.25261 33023 ft 480 kts 90°
2026-05-07 16:22 48.45971 9.35334 33020 ft 480 kts 90°
2026-05-07 16:22 48.46053 9.45338 33019 ft 481 kts 90°
2026-05-07 16:23 48.46124 9.55406 33014 ft 481 kts 91°
2026-05-07 16:23 48.46184 9.65493 32594 ft 483 kts 91°
2026-05-07 16:23 48.46209 9.70610 31422 ft 490 kts 91°
2026-05-07 16:24 48.46233 9.75736 30593 ft 489 kts 91°
2026-05-07 16:24 48.46253 9.80852 29673 ft 488 kts 91°
2026-05-07 16:24 48.46271 9.85973 28598 ft 489 kts 91°
2026-05-07 16:24 48.46285 9.91104 27474 ft 490 kts 91°
2026-05-07 16:25 48.46296 9.96244 26329 ft 492 kts 91°
2026-05-07 16:25 48.46306 10.01408 25221 ft 493 kts 91°
2026-05-07 16:25 48.46313 10.06543 24820 ft 489 kts 91°
2026-05-07 16:25 48.46320 10.11653 24113 ft 485 kts 91°
2026-05-07 16:26 48.46322 10.16711 23546 ft 482 kts 91°
2026-05-07 16:26 48.46322 10.21762 22993 ft 481 kts 91°
2026-05-07 16:26 48.46319 10.26792 22446 ft 478 kts 91°
2026-05-07 16:26 48.46318 10.30099 22094 ft 476 kts 91°
2026-05-07 16:27 48.46313 10.35077 21563 ft 473 kts 91°
2026-05-07 16:27 48.46305 10.40028 21043 ft 471 kts 91°
2026-05-07 16:27 48.46293 10.44936 20536 ft 468 kts 91°
2026-05-07 16:27 48.46280 10.49820 20037 ft 465 kts 91°
2026-05-07 16:28 48.46264 10.54686 19545 ft 462 kts 91°
2026-05-07 16:28 48.46282 10.59517 19059 ft 460 kts 88°
2026-05-07 16:28 48.46621 10.64293 18584 ft 458 kts 82°
2026-05-07 16:28 48.47048 10.69030 18081 ft 455 kts 83°
2026-05-07 16:29 48.47463 10.73741 17546 ft 452 kts 83°
2026-05-07 16:29 48.47866 10.78433 17016 ft 449 kts 83°
2026-05-07 16:29 48.48262 10.83089 16487 ft 446 kts 83°
2026-05-07 16:29 48.48653 10.87708 15989 ft 443 kts 83°
2026-05-07 16:30 48.49041 10.92308 15509 ft 441 kts 83°
2026-05-07 16:30 48.49425 10.96874 15133 ft 438 kts 83°
2026-05-07 16:30 48.49808 11.01421 14769 ft 436 kts 83°
2026-05-07 16:30 48.50192 11.05944 14403 ft 434 kts 83°
2026-05-07 16:31 48.50572 11.10439 14043 ft 432 kts 83°
2026-05-07 16:31 48.50946 11.14920 13664 ft 429 kts 83°
2026-05-07 16:31 48.51324 11.19371 13265 ft 427 kts 83°
2026-05-07 16:31 48.51539 11.23817 12845 ft 424 kts 89°
2026-05-07 16:32 48.51624 11.28234 12456 ft 421 kts 89°
2026-05-07 16:32 48.51700 11.32642 12069 ft 418 kts 90°
2026-05-07 16:32 48.51610 11.37012 11688 ft 415 kts 94°
2026-05-07 16:32 48.51447 11.41348 11309 ft 413 kts 94°
2026-05-07 16:33 48.51281 11.45652 11054 ft 410 kts 94°
2026-05-07 16:33 48.51129 11.49620 10938 ft 410 kts 94°
2026-05-07 16:33 48.50967 11.53914 10810 ft 409 kts 94°
2026-05-07 16:33 48.50804 11.58178 10459 ft 403 kts 95°
2026-05-07 16:34 48.50648 11.62341 10100 ft 391 kts 94°
2026-05-07 16:34 48.50498 11.66376 9722 ft 380 kts 95°
2026-05-07 16:34 48.50351 11.70302 9326 ft 370 kts 94°
2026-05-07 16:34 48.50203 11.74140 8930 ft 364 kts 94°
2026-05-07 16:35 48.50057 11.77922 8553 ft 358 kts 94°
2026-05-07 16:35 48.49912 11.81621 8174 ft 349 kts 94°
2026-05-07 16:35 48.49768 11.85218 7785 ft 336 kts 95°
2026-05-07 16:35 48.49632 11.88626 7411 ft 317 kts 94°
2026-05-07 16:36 48.49503 11.91865 7082 ft 304 kts 94°
2026-05-07 16:36 48.49372 11.95025 6760 ft 300 kts 95°
2026-05-07 16:36 48.49023 11.98093 6401 ft 296 kts 108°
2026-05-07 16:36 48.48102 12.00813 6014 ft 291 kts 127°
2026-05-07 16:37 48.46890 12.03228 5625 ft 288 kts 129°
2026-05-07 16:37 48.45647 12.05570 5241 ft 284 kts 132°
2026-05-07 16:37 48.44142 12.07431 5013 ft 275 kts 147°
2026-05-07 16:37 48.42585 12.08951 5004 ft 258 kts 148°
2026-05-07 16:38 48.41018 12.10035 5003 ft 241 kts 172°
2026-05-07 16:38 48.39425 12.09680 5011 ft 228 kts 212°
2026-05-07 16:38 48.38443 12.07970 4934 ft 214 kts 254°
2026-05-07 16:38 48.38363 12.05777 4734 ft 211 kts 274°
2026-05-07 16:39 48.38309 12.03558 4457 ft 214 kts 265°
2026-05-07 16:39 48.38139 12.01325 4171 ft 214 kts 264°
2026-05-07 16:39 48.37973 11.99162 3885 ft 203 kts 265°
2026-05-07 16:39 48.37819 11.97121 3652 ft 189 kts 264°
2026-05-07 16:40 48.37676 11.95213 3404 ft 179 kts 266°
2026-05-07 16:40 48.37540 11.93411 3175 ft 166 kts 266°
2026-05-07 16:40 48.37415 11.91753 2946 ft 153 kts 265°
2026-05-07 16:40 48.37299 11.90219 2723 ft 143 kts 266°
2026-05-07 16:41 48.37189 11.88753 2502 ft 141 kts 264°
2026-05-07 16:41 48.37079 11.87297 2239 ft 140 kts 267°
2026-05-07 16:41 48.36969 11.85835 2017 ft 143 kts 267°
2026-05-07 16:41 48.36860 11.84370 1817 ft 143 kts 268°
2026-05-07 16:42 48.36747 11.82893 1629 ft 142 kts 267°
2026-05-07 16:42 48.36634 11.81437 1489 ft 134 kts 268°
2026-05-07 16:42 48.36543 11.80222 1485 ft 93 kts 263°
2026-05-07 16:42 48.36486 11.79476 1485 ft 62 kts 263°
2026-05-07 16:43 48.36400 11.78908 1477 ft 52 kts 240°
2026-05-07 16:43 48.36256 11.78614 1481 ft 26 kts 233°
2026-05-07 16:43 48.36221 11.78544 1476 ft 0 kts 233°
2026-05-07 16:44 48.36220 11.78543 1477 ft 2 kts 233°
2026-05-07 16:44 48.36177 11.78453 1477 ft 16 kts 234°
2026-05-07 16:44 48.36125 11.78319 1483 ft 14 kts 259°
2026-05-07 16:44 48.36113 11.78159 1485 ft 17 kts 262°
2026-05-07 16:45 48.36099 11.77973 1481 ft 19 kts 261°
2026-05-07 16:45 48.36086 11.77813 1485 ft 15 kts 263°
2026-05-07 16:45 48.36055 11.77670 1478 ft 13 kts 210°
2026-05-07 16:45 48.36024 11.77666 1478 ft 0 kts 176°
2026-05-07 16:49 48.36019 11.77667 1485 ft 1 kts 176°
2026-05-07 16:49 48.36004 11.77669 1481 ft 3 kts 174°
2026-05-07 16:49 48.35987 11.77672 1485 ft 0 kts 173°
2026-05-07 16:49 48.35984 11.77675 1478 ft 2 kts 153°
2026-05-07 16:50 48.35969 11.77728 1482 ft 6 kts 97°
2026-05-07 16:50 48.35971 11.77806 1485 ft 8 kts 106°
2026-05-07 16:50 48.35925 11.77845 1479 ft 8 kts 173°
2026-05-07 16:50 48.35875 11.77853 1485 ft 0 kts 174°
2026-05-07 16:55 48.35873 11.77854 1485 ft 1 kts 174°
2026-05-07 16:55 48.35838 11.77860 1474 ft 10 kts 173°
2026-05-07 16:56 48.35779 11.77783 1483 ft 15 kts 257°
2026-05-07 16:56 48.35703 11.77691 1485 ft 18 kts 171°
2026-05-07 16:56 48.35442 11.77739 1485 ft 10 kts 175°
2026-05-07 16:57 48.35417 11.77670 1482 ft 5 kts 265°
2026-05-07 16:57 48.35417 11.77663 1481 ft 0 kts 265°